Location: Sungai Apap
(2.6167°N, 113.3833°E)
Time: 14:53:34
(UTC+00:00)

CZ-4 R/B - Pass Details

Date: 25 May 2024
Orbit: 516 x 570 km, 97.6° (Epoch: 14 June)

Event Time Altitude Azimuth Distance (km) Brightness Sun altitude
Exits shadow 12:34:15 25° 330° (NNW) 1,065 3.2 -29.1°
Drops below altitude 10° 12:35:58 10° 338° (NNW) 1,740 4.4 -29.5°
Sets 12:38:05 0° 343° (NNW) 2,629 5.4 -30.0°
